Check out our new BloomSky Weather System.

Active alerts


No alerts


Thunder radar  blitzortung!


Rain radar more information rain snow radar


Visit our other weather sites:

Template documentation
and downloads

And another site



Weather Underground History page Text

Daily Summary for January 24, 2017 Units:  Metric    English   Both
« Previous Day
Next Day »
Daily Weekly Monthly Yearly Custom
  High: Low: Average:
Temperature: -17.8 °C 9.1 °C 19 °C
Dew Point: -17.8 °C 7.2 °C 14.8 °C
Humidity: Humidity % 52 % 78 %
Wind Speed: 0 km/h 0 km/h 7.6 km/h
Wind Gust: 0 km/h - -
Wind:- - SSE
Pressure: 0 hPa 1005.3 hPa -
Precipitation: 0 mm    
Historical Graphs
 
 
Tabular Data for January 24, 2017
Time Temperature Dew Point Pressure Wind Wind Speed Wind Gust Humidity Rainfall Rate (Hourly)
-17.8 °C -17.8 °C 0 hPa Calm     Humidity % 0 mm
00:02 13.9 °C 7.2 °C 1010.7 hPa SW 4.8 km/h 8 km/h 64 % 0 mm
00:07 13.9 °C 7.2 °C 1010.7 hPa SSW 3.2 km/h 8 km/h 64 % 0 mm
00:12 13.8 °C 7.3 °C 1010.7 hPa South 3.2 km/h 6.4 km/h 65 % 0 mm
00:17 13.8 °C 7.3 °C 1010.7 hPa SW 4.8 km/h 6.4 km/h 65 % 0 mm
00:22 13.7 °C 7.2 °C 1010.4 hPa SSW 6.4 km/h 6.4 km/h 65 % 0 mm
00:27 13.6 °C 7.4 °C 1010.4 hPa South 3.2 km/h 6.4 km/h 66 % 0 mm
00:32 13.5 °C 7.5 °C 1010.4 hPa SSW 6.4 km/h 6.4 km/h 67 % 0 mm
00:37 13.5 °C 7.7 °C 1010.4 hPa South 4.8 km/h 6.4 km/h 68 % 0 mm
00:42 13.5 °C 7.9 °C 1010 hPa SE 3.2 km/h 6.4 km/h 69 % 0 mm
00:47 13.5 °C 8.1 °C 1010 hPa SSE 3.2 km/h 6.4 km/h 70 % 0 mm
00:52 13.5 °C 8.1 °C 1010 hPa South 1.6 km/h 6.4 km/h 70 % 0 mm
00:57 13.4 °C 8.5 °C 1010 hPa South 1.6 km/h 6.4 km/h 72 % 0 mm
01:02 13.4 °C 8.7 °C 1010 hPa South 1.6 km/h 6.4 km/h 73 % 0 mm
01:07 13.4 °C 8.9 °C 1010 hPa SW 3.2 km/h 6.4 km/h 74 % 0 mm
01:12 13.4 °C 9.1 °C 1010 hPa SE 1.6 km/h 6.4 km/h 75 % 0 mm
01:17 13.4 °C 9.1 °C 1010 hPa SSW 3.2 km/h 6.4 km/h 75 % 0 mm
01:22 13.3 °C 9.2 °C 1010 hPa SSE 1.6 km/h 6.4 km/h 76 % 0 mm
01:27 13.3 °C 9.2 °C 1010 hPa Calm   4.8 km/h 76 % 0 mm
01:32 13.2 °C 9.3 °C 1010 hPa Calm   4.8 km/h 77 % 0 mm
01:37 13.1 °C 9.2 °C 1010 hPa Calm   3.2 km/h 77 % 0 mm
01:42 12.8 °C 9.1 °C 1010 hPa Calm   1.6 km/h 78 % 0 mm
01:47 12.7 °C 9 °C 1010 hPa Calm   1.6 km/h 78 % 0 mm
01:52 12.4 °C 8.9 °C 1010 hPa Calm   1.6 km/h 79 % 0 mm
01:57 12.2 °C 8.9 °C 1010 hPa Calm   1.6 km/h 80 % 0 mm
02:02 12 °C 8.7 °C 1010 hPa Calm   1.6 km/h 80 % 0 mm
02:07 11.8 °C 8.6 °C 1010 hPa Calm     81 % 0 mm
02:12 11.6 °C 8.5 °C 1010 hPa Calm   1.6 km/h 81 % 0 mm
02:17 11.4 °C 8.3 °C 1009.7 hPa Calm   1.6 km/h 81 % 0 mm
02:19 11.3 °C 8.2 °C 1009.7 hPa Calm   1.6 km/h 81 % 0 mm
02:23 11.1 °C 8.1 °C 1009.7 hPa Calm   1.6 km/h 82 % 0 mm
02:28 10.9 °C 7.9 °C 1009.7 hPa Calm   1.6 km/h 82 % 0 mm
02:33 10.8 °C 8 °C 1009.7 hPa Calm   1.6 km/h 83 % 0 mm
02:38 10.7 °C 7.9 °C 1009.7 hPa Calm     83 % 0 mm
02:43 10.6 °C 8 °C 1009.7 hPa Calm     84 % 0 mm
02:48 10.4 °C 7.8 °C 1009.7 hPa Calm     84 % 0 mm
02:54 10.2 °C 7.6 °C 1009.4 hPa Calm     84 % 0 mm
02:59 10.2 °C 7.8 °C 1009.4 hPa Calm     85 % 0 mm
03:04 10 °C 7.6 °C 1009.4 hPa Calm   1.6 km/h 85 % 0 mm
03:09 9.8 °C 7.6 °C 1009.4 hPa Calm   1.6 km/h 86 % 0 mm
03:14 9.8 °C 7.6 °C 1009.4 hPa Calm   1.6 km/h 86 % 0 mm
03:19 9.7 °C 7.6 °C 1009.4 hPa Calm     87 % 0 mm
03:24 9.6 °C 7.5 °C 1009.4 hPa Calm     87 % 0 mm
03:29 9.4 °C 7.3 °C 1009.4 hPa Calm     87 % 0 mm
03:34 9.3 °C 7.4 °C 1009.4 hPa Calm     88 % 0 mm
03:39 9.2 °C 7.3 °C 1009.4 hPa Calm     88 % 0 mm
03:44 9.3 °C 7.6 °C 1009 hPa Calm   1.6 km/h 89 % 0 mm
03:49 9.2 °C 7.5 °C 1009 hPa Calm   1.6 km/h 89 % 0 mm
03:54 9.2 °C 7.6 °C 1009 hPa Calm   1.6 km/h 90 % 0 mm
03:59 9.1 °C 7.5 °C 1009 hPa Calm     90 % 0 mm
04:04 9.1 °C 7.5 °C 1009 hPa Calm     90 % 0 mm
04:09 9.2 °C 7.8 °C 1009 hPa Calm     91 % 0 mm
04:14 9.2 °C 8 °C 1009 hPa Calm     92 % 0 mm
04:19 9.4 °C 8.2 °C 1008.7 hPa Calm     92 % 0 mm
04:24 9.4 °C 8.2 °C 1008.7 hPa Calm   1.6 km/h 92 % 0 mm
04:29 9.3 °C 8.1 °C 1008.7 hPa Calm   1.6 km/h 92 % 0 mm
04:34 9.3 °C 8.1 °C 1008.7 hPa Calm   1.6 km/h 92 % 0 mm
04:39 9.3 °C 8.1 °C 1008.7 hPa Calm   1.6 km/h 92 % 0 mm
04:44 9.3 °C 8.1 °C 1008.7 hPa Calm   1.6 km/h 92 % 0 mm
04:49 9.3 °C 8.1 °C 1008.7 hPa Calm   1.6 km/h 92 % 0 mm
04:54 9.2 °C 8.1 °C 1008.7 hPa Calm   1.6 km/h 93 % 0 mm
04:59 9.3 °C 8.4 °C 1008.7 hPa Calm   1.6 km/h 94 % 0 mm
05:04 9.4 °C 8.5 °C 1008.7 hPa Calm   1.6 km/h 94 % 0 mm
05:09 9.7 °C 8.8 °C 1008.7 hPa Calm   1.6 km/h 94 % 0 mm
05:14 10 °C 9.2 °C 1008.7 hPa Calm   1.6 km/h 95 % 0 mm
05:19 10.2 °C 9.3 °C 1008.7 hPa Calm   1.6 km/h 94 % 0 mm
05:24 10.2 °C 9.3 °C 1008.4 hPa Calm   1.6 km/h 94 % 0 mm
05:29 10.3 °C 9.5 °C 1008.4 hPa Calm   1.6 km/h 95 % 0 mm
05:34 10.4 °C 9.6 °C 1008.4 hPa Calm   1.6 km/h 95 % 0 mm
05:39 10.4 °C 9.6 °C 1008.4 hPa Calm     95 % 0 mm
05:44 10.6 °C 9.8 °C 1008.4 hPa Calm     95 % 0 mm
05:49 10.7 °C 9.9 °C 1008.4 hPa Calm   1.6 km/h 95 % 0 mm
05:54 10.9 °C 10.3 °C 1008.4 hPa Calm   1.6 km/h 96 % 0 mm
05:59 11.2 °C 10.6 °C 1008.4 hPa Calm   1.6 km/h 96 % 0 mm
06:04 11.3 °C 10.7 °C 1008.4 hPa Calm   3.2 km/h 96 % 0 mm
06:09 11.6 °C 11 °C 1008.4 hPa Calm   3.2 km/h 96 % 0 mm
06:14 11.8 °C 11.2 °C 1008.7 hPa Calm   3.2 km/h 96 % 0 mm
06:19 12.1 °C 11.5 °C 1008.7 hPa SE 1.6 km/h 3.2 km/h 96 % 0 mm
06:24 12.3 °C 11.7 °C 1008.7 hPa East 1.6 km/h 4.8 km/h 96 % 0 mm
06:29 12.4 °C 11.8 °C 1008.7 hPa Calm   4.8 km/h 96 % 0 mm
06:34 12.4 °C 11.8 °C 1008.7 hPa Calm   4.8 km/h 96 % 0 mm
06:40 12.6 °C 12 °C 1008.4 hPa Calm   3.2 km/h 96 % 0 mm
06:45 12.7 °C 12.1 °C 1008.4 hPa Calm   4.8 km/h 96 % 0 mm
06:50 12.9 °C 12.3 °C 1008.4 hPa SE 4.8 km/h 4.8 km/h 96 % 0 mm
06:55 13.1 °C 12.5 °C 1008.4 hPa SE 1.6 km/h 6.4 km/h 96 % 0 mm
07:00 13.3 °C 12.7 °C 1008.4 hPa South 3.2 km/h 6.4 km/h 96 % 0 mm
07:05 13.5 °C 12.9 °C 1008.7 hPa SE 1.6 km/h 8 km/h 96 % 0 mm
07:10 13.7 °C 13.1 °C 1008.7 hPa South 1.6 km/h 8 km/h 96 % 0 mm
07:15 13.8 °C 13.2 °C 1008.7 hPa South 1.6 km/h 8 km/h 96 % 0 mm
07:20 13.8 °C 13.2 °C 1008.7 hPa SE 1.6 km/h 8 km/h 96 % 0 mm
07:25 14 °C 13.4 °C 1008.7 hPa South 3.2 km/h 8 km/h 96 % 0 mm
07:30 14.1 °C 13.5 °C 1008.7 hPa SE 6.4 km/h 8 km/h 96 % 0 mm
07:35 14.2 °C 13.4 °C 1008.7 hPa Calm   8 km/h 95 % 0 mm
07:40 14.4 °C 13.6 °C 1009 hPa SE 1.6 km/h 8 km/h 95 % 0 mm
07:45 14.6 °C 14 °C 1009 hPa SSE 1.6 km/h 8 km/h 96 % 0 mm
07:50 14.9 °C 14.1 °C 1009 hPa SE 1.6 km/h 6.4 km/h 95 % 0 mm
07:55 15.2 °C 14.4 °C 1009 hPa SSE 1.6 km/h 6.4 km/h 95 % 0 mm
08:00 15.4 °C 14.4 °C 1009 hPa South 3.2 km/h 6.4 km/h 94 % 0 mm
08:05 15.7 °C 14.7 °C 1009 hPa SE 3.2 km/h 8 km/h 94 % 0 mm
08:10 15.9 °C 14.9 °C 1009 hPa SSE 3.2 km/h 8 km/h 94 % 0 mm
08:15 16.2 °C 15.1 °C 1009 hPa South 3.2 km/h 8 km/h 93 % 0 mm
08:20 16.6 °C 15.5 °C 1009 hPa South 4.8 km/h 9.7 km/h 93 % 0 mm
08:25 16.9 °C 15.6 °C 1009 hPa SSE 6.4 km/h 14.5 km/h 92 % 0 mm
08:30 17.1 °C 15.6 °C 1009 hPa SSW 11.3 km/h 17.7 km/h 91 % 0 mm
08:35 17.3 °C 15.8 °C 1009 hPa SSE 6.4 km/h 17.7 km/h 91 % 0 mm
08:40 17.6 °C 16.1 °C 1009 hPa SSW 9.7 km/h 17.7 km/h 91 % 0 mm
08:45 18 °C 16.2 °C 1009 hPa SSE 6.4 km/h 17.7 km/h 89 % 0 mm
08:50 18.4 °C 16.6 °C 1009 hPa SSW 16.1 km/h 17.7 km/h 89 % 0 mm
08:55 18.7 °C 16.7 °C 1009 hPa SSW 9.7 km/h 17.7 km/h 88 % 0 mm
09:00 19 °C 16.8 °C 1009 hPa SSE 3.2 km/h 17.7 km/h 87 % 0 mm
09:05 19.4 °C 17 °C 1009.4 hPa SSW 8 km/h 19.3 km/h 86 % 0 mm
09:10 19.5 °C 16.9 °C 1009.4 hPa SSW 8 km/h 19.3 km/h 85 % 0 mm
09:15 19.7 °C 16.9 °C 1009.4 hPa SSE 19.3 km/h 19.3 km/h 84 % 0 mm
09:20 19.8 °C 17 °C 1009.4 hPa ESE 6.4 km/h 19.3 km/h 84 % 0 mm
09:25 20.1 °C 17.1 °C 1009.4 hPa SSW 8 km/h 20.9 km/h 83 % 0 mm
09:30 20.3 °C 17.3 °C 1009.4 hPa South 11.3 km/h 20.9 km/h 83 % 0 mm
09:35 20.6 °C 17.4 °C 1009.4 hPa SW 9.7 km/h 20.9 km/h 82 % 0 mm
09:40 20.7 °C 17.1 °C 1009.4 hPa SE 9.7 km/h 22.5 km/h 80 % 0 mm
09:45 20.9 °C 17.3 °C 1009.4 hPa South 11.3 km/h 24.1 km/h 80 % 0 mm
09:50 21.1 °C 17.3 °C 1009.4 hPa SSW 17.7 km/h 24.1 km/h 79 % 0 mm
09:55 21.3 °C 17.5 °C 1009.7 hPa SSE 8 km/h 24.1 km/h 79 % 0 mm
10:00 21.4 °C 17.2 °C 1009.4 hPa SSE 9.7 km/h 24.1 km/h 77 % 0 mm
10:05 21.6 °C 17.2 °C 1009.7 hPa SE 20.9 km/h 24.1 km/h 76 % 0 mm
10:10 21.8 °C 17.2 °C 1009.7 hPa SE 11.3 km/h 24.1 km/h 75 % 0 mm
10:15 21.9 °C 17.3 °C 1009.7 hPa SSW 12.9 km/h 25.7 km/h 75 % 0 mm
10:20 22.1 °C 17 °C 1009.7 hPa SSW 12.9 km/h 25.7 km/h 73 % 0 mm
10:25 22.2 °C 17.1 °C 1009.7 hPa South 19.3 km/h 25.7 km/h 73 % 0 mm
10:30 22.4 °C 17.3 °C 1009.4 hPa SSE 11.3 km/h 25.7 km/h 73 % 0 mm
10:35 22.3 °C 17.2 °C 1009.7 hPa SE 19.3 km/h 25.7 km/h 73 % 0 mm
10:40 22.4 °C 17.3 °C 1009.7 hPa SSE 4.8 km/h 20.9 km/h 73 % 0 mm
10:45 22.6 °C 17.3 °C 1009.7 hPa SSE 12.9 km/h 20.9 km/h 72 % 0 mm
10:50 22.7 °C 17.4 °C 1009.7 hPa SSW 16.1 km/h 20.9 km/h 72 % 0 mm
10:55 22.8 °C 17.3 °C 1009.7 hPa South 17.7 km/h 19.3 km/h 71 % 0 mm
11:00 23 °C 17.5 °C 1009.7 hPa SE 12.9 km/h 19.3 km/h 71 % 0 mm
11:05 23.3 °C 18 °C 1009.7 hPa South 6.4 km/h 20.9 km/h 72 % 0 mm
11:10 23.6 °C 17.6 °C 1009.4 hPa SE 12.9 km/h 20.9 km/h 69 % 0 mm
11:16 23.6 °C 17.6 °C 1009.4 hPa SSE 6.4 km/h 22.5 km/h 69 % 0 mm
11:21 23.9 °C 17.6 °C 1009.4 hPa ESE 14.5 km/h 22.5 km/h 68 % 0 mm
11:26 24 °C 17.5 °C 1009.4 hPa South 8 km/h 22.5 km/h 67 % 0 mm
11:31 24.3 °C 17.5 °C 1009.4 hPa SSE 11.3 km/h 19.3 km/h 66 % 0 mm
11:36 24.5 °C 17.2 °C 1009 hPa SSW 4.8 km/h 19.3 km/h 64 % 0 mm
11:41 24.6 °C 17.6 °C 1009 hPa South 9.7 km/h 19.3 km/h 65 % 0 mm
11:46 24.6 °C 17.3 °C 1008.7 hPa SSE 14.5 km/h 20.9 km/h 64 % 0 mm
11:51 24.5 °C 17.5 °C 1008.7 hPa SE 12.9 km/h 22.5 km/h 65 % 0 mm
11:56 24.7 °C 17.4 °C 1008.7 hPa SE 6.4 km/h 22.5 km/h 64 % 0 mm
12:01 24.8 °C 17.5 °C 1008.7 hPa East 14.5 km/h 22.5 km/h 64 % 0 mm
12:06 24.9 °C 17.4 °C 1008.4 hPa ESE 12.9 km/h 19.3 km/h 63 % 0 mm
12:11 24.9 °C 17.4 °C 1008.4 hPa SSW 3.2 km/h 19.3 km/h 63 % 0 mm
12:16 25.2 °C 17.1 °C 1008.4 hPa SE 17.7 km/h 19.3 km/h 61 % 0 mm
12:21 25.2 °C 17.4 °C 1008.4 hPa SE 6.4 km/h 20.9 km/h 62 % 0 mm
12:26 25.4 °C 17.3 °C 1008.4 hPa SE 8 km/h 20.9 km/h 61 % 0 mm
12:31 25.6 °C 17.8 °C 1008 hPa South 8 km/h 20.9 km/h 62 % 0 mm
12:36 26 °C 17.6 °C 1008 hPa SSE 11.3 km/h 16.1 km/h 60 % 0 mm
12:41 25.8 °C 17.2 °C 1007.7 hPa SSW 9.7 km/h 19.3 km/h 59 % 0 mm
12:46 25.8 °C 17.2 °C 1007.7 hPa SE 16.1 km/h 19.3 km/h 59 % 0 mm
12:51 25.9 °C 17.3 °C 1007.7 hPa South 11.3 km/h 22.5 km/h 59 % 0 mm
12:56 26.1 °C 17.2 °C 1007.3 hPa SSW 12.9 km/h 22.5 km/h 58 % 0 mm
13:01 26.2 °C 17 °C 1007.3 hPa ESE 12.9 km/h 22.5 km/h 57 % 0 mm
13:06 26.2 °C 16.7 °C 1007.3 hPa ESE 16.1 km/h 22.5 km/h 56 % 0 mm
13:11 26.4 °C 16.9 °C 1007 hPa SSE 14.5 km/h 22.5 km/h 56 % 0 mm
13:16 26.6 °C 17.1 °C 1007 hPa SE 14.5 km/h 22.5 km/h 56 % 0 mm
13:21 26.4 °C 16.6 °C 1007 hPa SSE 12.9 km/h 24.1 km/h 55 % 0 mm
13:26 26.4 °C 16.9 °C 1006.7 hPa ESE 12.9 km/h 24.1 km/h 56 % 0 mm
13:31 26.4 °C 16 °C 1006.7 hPa SSE 14.5 km/h 24.1 km/h 53 % 0 mm
13:36 26.4 °C 16.6 °C 1006.7 hPa South 11.3 km/h 25.7 km/h 55 % 0 mm
13:41 26.6 °C 16.8 °C 1006.7 hPa SW 4.8 km/h 25.7 km/h 55 % 0 mm
13:46 26.6 °C 16.8 °C 1006.7 hPa SSW 3.2 km/h 25.7 km/h 55 % 0 mm
13:51 26.9 °C 16.5 °C 1006.7 hPa SSE 16.1 km/h 22.5 km/h 53 % 0 mm
13:56 26.8 °C 16.4 °C 1006.7 hPa SSE 11.3 km/h 30.6 km/h 53 % 0 mm
14:01 26.9 °C 16.5 °C 1006.3 hPa SSE 11.3 km/h 30.6 km/h 53 % 0 mm
14:06 27.1 °C 16.7 °C 1006.3 hPa SSE 9.7 km/h 30.6 km/h 53 % 0 mm
14:11 27.2 °C 16.8 °C 1006.3 hPa SSW 9.7 km/h 25.7 km/h 53 % 0 mm
14:16 27.3 °C 16.6 °C 1006.3 hPa SSE 9.7 km/h 25.7 km/h 52 % 0 mm
14:21 27.2 °C 16.5 °C 1006 hPa SSW 11.3 km/h 25.7 km/h 52 % 0 mm
14:26 27.3 °C 16.6 °C 1006 hPa SSE 4.8 km/h 22.5 km/h 52 % 0 mm
14:31 27.5 °C 17.1 °C 1006 hPa WSW 11.3 km/h 22.5 km/h 53 % 0 mm
14:36 27.4 °C 17 °C 1006 hPa South 11.3 km/h 22.5 km/h 53 % 0 mm
14:42 27.5 °C 17.1 °C 1006 hPa SW 16.1 km/h 22.5 km/h 53 % 0 mm
14:47 27.2 °C 17.1 °C 1006 hPa SSW 6.4 km/h 24.1 km/h 54 % 0 mm
14:52 27.3 °C 17.2 °C 1006 hPa SSE 9.7 km/h 24.1 km/h 54 % 0 mm
14:57 27.2 °C 17.1 °C 1005.6 hPa SW 12.9 km/h 24.1 km/h 54 % 0 mm
15:02 27.2 °C 17.1 °C 1005.6 hPa SSW 9.7 km/h 24.1 km/h 54 % 0 mm
15:07 27.3 °C 16.6 °C 1005.6 hPa South 12.9 km/h 24.1 km/h 52 % 0 mm
15:12 27.3 °C 16.9 °C 1005.6 hPa SSE 9.7 km/h 22.5 km/h 53 % 0 mm
15:17 27.2 °C 17.1 °C 1005.6 hPa SSW 4.8 km/h 24.1 km/h 54 % 0 mm
15:22 27.3 °C 17.2 °C 1005.6 hPa ESE 25.7 km/h 25.7 km/h 54 % 0 mm
15:27 27.2 °C 17.1 °C 1005.3 hPa South 12.9 km/h 27.4 km/h 54 % 0 mm
15:32 27.1 °C 17.3 °C 1005.6 hPa SSW 6.4 km/h 27.4 km/h 55 % 0 mm
15:37 27.1 °C 17 °C 1005.6 hPa SE 16.1 km/h 27.4 km/h 54 % 0 mm
15:42 27.1 °C 17.3 °C 1005.6 hPa SSW 8 km/h 20.9 km/h 55 % 0 mm
15:47 27.1 °C 17.6 °C 1005.3 hPa South 11.3 km/h 19.3 km/h 56 % 0 mm
15:52 26.7 °C 17.5 °C 1005.3 hPa SE 9.7 km/h 19.3 km/h 57 % 0 mm
15:57 26.6 °C 17.7 °C 1005.6 hPa SSE 17.7 km/h 22.5 km/h 58 % 0 mm
16:02 26.3 °C 17.4 °C 1005.6 hPa SSE 8 km/h 27.4 km/h 58 % 0 mm
16:07 26.2 °C 17.6 °C 1005.6 hPa SSE 17.7 km/h 27.4 km/h 59 % 0 mm
16:12 26.1 °C 17.5 °C 1005.6 hPa SSE 11.3 km/h 27.4 km/h 59 % 0 mm
16:17 26 °C 17.6 °C 1005.6 hPa SSE 9.7 km/h 25.7 km/h 60 % 0 mm
16:22 25.9 °C 17.8 °C 1005.6 hPa South 11.3 km/h 25.7 km/h 61 % 0 mm
16:27 25.8 °C 18 °C 1005.6 hPa South 16.1 km/h 25.7 km/h 62 % 0 mm
16:32 25.7 °C 18.4 °C 1005.6 hPa ESE 11.3 km/h 25.7 km/h 64 % 0 mm
16:37 25.6 °C 18.5 °C 1005.6 hPa SSE 12.9 km/h 25.7 km/h 65 % 0 mm
16:42 25.4 °C 18.3 °C 1005.6 hPa South 6.4 km/h 22.5 km/h 65 % 0 mm
16:47 25.6 °C 18.8 °C 1005.6 hPa South 12.9 km/h 22.5 km/h 66 % 0 mm
16:52 25.3 °C 18.5 °C 1005.6 hPa SE 11.3 km/h 25.7 km/h 66 % 0 mm
16:57 25.1 °C 18.5 °C 1005.6 hPa SSW 12.9 km/h 25.7 km/h 67 % 0 mm
17:02 24.9 °C 18.6 °C 1005.6 hPa SE 14.5 km/h 25.7 km/h 68 % 0 mm
17:07 24.7 °C 18.4 °C 1005.6 hPa SE 9.7 km/h 20.9 km/h 68 % 0 mm
17:12 24.6 °C 18.5 °C 1005.6 hPa South 11.3 km/h 20.9 km/h 69 % 0 mm
17:17 24.5 °C 18.4 °C 1005.6 hPa SE 11.3 km/h 24.1 km/h 69 % 0 mm
17:22 24.3 °C 18.2 °C 1005.6 hPa SE 11.3 km/h 29 km/h 69 % 0 mm
17:27 24.1 °C 18.3 °C 1005.6 hPa SE 14.5 km/h 29 km/h 70 % 0 mm
17:32 23.9 °C 18.1 °C 1005.6 hPa SSE 19.3 km/h 29 km/h 70 % 0 mm
17:37 23.8 °C 18.2 °C 1005.6 hPa South 14.5 km/h 25.7 km/h 71 % 0 mm
17:42 23.6 °C 18.3 °C 1005.3 hPa ESE 14.5 km/h 25.7 km/h 72 % 0 mm
17:47 23.4 °C 18.3 °C 1005.6 hPa ESE 12.9 km/h 24.1 km/h 73 % 0 mm
17:52 23.3 °C 18.4 °C 1005.6 hPa SE 9.7 km/h 27.4 km/h 74 % 0 mm
17:57 23.1 °C 18.2 °C 1005.6 hPa SSE 12.9 km/h 27.4 km/h 74 % 0 mm
18:02 22.9 °C 18.2 °C 1005.6 hPa SSW 6.4 km/h 27.4 km/h 75 % 0 mm
18:07 22.8 °C 18.1 °C 1005.6 hPa SE 9.7 km/h 25.7 km/h 75 % 0 mm
18:12 22.7 °C 18.2 °C 1005.6 hPa South 22.5 km/h 22.5 km/h 76 % 0 mm
18:17 22.6 °C 18.2 °C 1005.6 hPa SE 17.7 km/h 27.4 km/h 76 % 0 mm
18:22 22.6 °C 18.4 °C 1005.6 hPa SSE 9.7 km/h 27.4 km/h 77 % 0 mm
18:27 22.4 °C 18.2 °C 1005.6 hPa SSE 14.5 km/h 27.4 km/h 77 % 0 mm
18:32 22.3 °C 18.1 °C 1005.6 hPa South 8 km/h 27.4 km/h 77 % 0 mm
18:37 22.3 °C 18.3 °C 1006 hPa SSW 11.3 km/h 22.5 km/h 78 % 0 mm
18:38 22.3 °C 18.3 °C 1006 hPa SE 17.7 km/h 22.5 km/h 78 % 0 mm
18:43 22.3 °C 18.3 °C 1006 hPa South 11.3 km/h 22.5 km/h 78 % 0 mm
18:48 22.2 °C 18.4 °C 1006 hPa ESE 11.3 km/h 22.5 km/h 79 % 0 mm
18:53 22.2 °C 18.6 °C 1006 hPa South 12.9 km/h 22.5 km/h 80 % 0 mm
18:58 22.1 °C 18.7 °C 1006 hPa SSE 16.1 km/h 22.5 km/h 81 % 0 mm
19:03 22 °C 18.6 °C 1006 hPa SE 11.3 km/h 22.5 km/h 81 % 0 mm
19:08 22 °C 18.6 °C 1006 hPa SSE 19.3 km/h 22.5 km/h 81 % 0 mm
19:13 22 °C 18.8 °C 1006 hPa SE 11.3 km/h 24.1 km/h 82 % 0 mm
19:18 22 °C 18.8 °C 1006 hPa South 11.3 km/h 25.7 km/h 82 % 0 mm
19:23 21.9 °C 18.9 °C 1006.3 hPa South 12.9 km/h 25.7 km/h 83 % 0 mm
19:28 21.8 °C 18.8 °C 1006.3 hPa NE 9.7 km/h 25.7 km/h 83 % 0 mm
19:33 21.8 °C 19 °C 1006.3 hPa SSE 9.7 km/h 24.1 km/h 84 % 0 mm
19:38 21.7 °C 18.9 °C 1006.3 hPa South 12.9 km/h 24.1 km/h 84 % 0 mm
19:43 21.6 °C 18.8 °C 1006.3 hPa SE 4.8 km/h 24.1 km/h 84 % 0 mm
19:48 21.6 °C 19 °C 1006.3 hPa SE 12.9 km/h 20.9 km/h 85 % 0 mm
19:53 21.5 °C 18.9 °C 1006.3 hPa East 12.9 km/h 20.9 km/h 85 % 0 mm
19:58 21.4 °C 19 °C 1006.3 hPa SSW 14.5 km/h 22.5 km/h 86 % 0 mm
20:03 21.4 °C 19 °C 1006.7 hPa South 14.5 km/h 22.5 km/h 86 % 0 mm
20:08 21.4 °C 19 °C 1006.7 hPa SSE 19.3 km/h 22.5 km/h 86 % 0 mm
20:18 21.4 °C 19.1 °C 1006.7 hPa SSW 12.9 km/h 24.1 km/h 87 % 0 mm
20:23 21.4 °C 19.1 °C 1006.7 hPa SSE 11.3 km/h 24.1 km/h 87 % 0 mm
20:28 21.4 °C 19.1 °C 1006.7 hPa SSE 14.5 km/h 22.5 km/h 87 % 0 mm
20:33 21.3 °C 19 °C 1006.7 hPa SE 11.3 km/h 22.5 km/h 87 % 0 mm
20:39 21.3 °C 19 °C 1006.7 hPa SSE 11.3 km/h 19.3 km/h 87 % 0 mm
20:44 21.3 °C 19.2 °C 1006.3 hPa SSE 12.9 km/h 17.7 km/h 88 % 0 mm
20:49 21.3 °C 19.2 °C 1006.3 hPa SSE 19.3 km/h 24.1 km/h 88 % 0 mm
20:54 21.2 °C 19.1 °C 1006.3 hPa SSE 9.7 km/h 24.1 km/h 88 % 0 mm
20:59 21.2 °C 19.1 °C 1006.3 hPa SE 9.7 km/h 24.1 km/h 88 % 0 mm
21:04 21.2 °C 19.1 °C 1006.3 hPa SE 12.9 km/h 24.1 km/h 88 % 0 mm
21:09 21.1 °C 19 °C 1006.3 hPa South 14.5 km/h 22.5 km/h 88 % 0 mm
21:14 21 °C 18.9 °C 1006.3 hPa SE 8 km/h 22.5 km/h 88 % 0 mm
21:19 20.9 °C 18.8 °C 1006.3 hPa ESE 9.7 km/h 22.5 km/h 88 % 0 mm
21:24 20.9 °C 19 °C 1006.3 hPa South 11.3 km/h 20.9 km/h 89 % 0 mm
21:29 20.8 °C 18.9 °C 1006.3 hPa ESE 12.9 km/h 20.9 km/h 89 % 0 mm
21:34 20.7 °C 18.8 °C 1006.3 hPa ESE 12.9 km/h 19.3 km/h 89 % 0 mm
21:39 20.7 °C 18.8 °C 1006.3 hPa South 9.7 km/h 17.7 km/h 89 % 0 mm
21:44 20.6 °C 18.9 °C 1006.3 hPa SSE 9.7 km/h 17.7 km/h 90 % 0 mm
21:49 20.6 °C 18.9 °C 1006.3 hPa South 9.7 km/h 20.9 km/h 90 % 0 mm
21:54 20.6 °C 18.9 °C 1006.3 hPa ESE 14.5 km/h 20.9 km/h 90 % 0 mm
21:59 20.6 °C 18.9 °C 1006.3 hPa South 6.4 km/h 20.9 km/h 90 % 0 mm
22:04 20.6 °C 18.9 °C 1006.3 hPa SSE 9.7 km/h 19.3 km/h 90 % 0 mm
22:09 20.6 °C 18.9 °C 1006.3 hPa SSW 9.7 km/h 19.3 km/h 90 % 0 mm
22:14 20.6 °C 18.9 °C 1006.3 hPa SE 6.4 km/h 19.3 km/h 90 % 0 mm
22:19 20.6 °C 18.9 °C 1006.3 hPa SSE 9.7 km/h 19.3 km/h 90 % 0 mm
22:24 20.6 °C 18.9 °C 1006.7 hPa South 6.4 km/h 19.3 km/h 90 % 0 mm
22:29 20.6 °C 18.9 °C 1006.7 hPa South 4.8 km/h 17.7 km/h 90 % 0 mm
22:34 20.6 °C 18.9 °C 1006.7 hPa South 9.7 km/h 17.7 km/h 90 % 0 mm
22:40 20.6 °C 18.9 °C 1006.7 hPa SSE 8 km/h 17.7 km/h 90 % 0 mm
22:45 20.6 °C 18.9 °C 1006.7 hPa SSE 1.6 km/h 16.1 km/h 90 % 0 mm
22:50 20.6 °C 18.9 °C 1007 hPa SE 6.4 km/h 16.1 km/h 90 % 0 mm
22:55 20.6 °C 18.9 °C 1006.7 hPa SE 9.7 km/h 16.1 km/h 90 % 0 mm
23:00 20.7 °C 19 °C 1006.7 hPa SSW 8 km/h 14.5 km/h 90 % 0 mm
23:05 20.7 °C 19 °C 1006.7 hPa South 14.5 km/h 14.5 km/h 90 % 0 mm
23:10 20.7 °C 18.8 °C 1006.7 hPa SE 4.8 km/h 16.1 km/h 89 % 0 mm
23:15 20.8 °C 18.9 °C 1006.7 hPa SSW 6.4 km/h 16.1 km/h 89 % 0 mm
23:20 20.8 °C 19.1 °C 1006.7 hPa South 4.8 km/h 16.1 km/h 90 % 0 mm
23:25 20.8 °C 19.1 °C 1006.7 hPa South 8 km/h 19.3 km/h 90 % 0 mm
Spring, Texas: Villages of Bridgestone
Compliments of Weather Underground - 2.75 mb

Script developed by  Jim McMurry - jmcmurry@mwt.net Adapted for the template by  Wim van der Kuil - Leuven-Template.eu

You find our weather info also at:

UK Metoffice

WeatherCloud

Weather Underground

Mid-South Weather Network

AWEKAS

Citizen Weather Observer Program (CWOP)

HAMweather, WeatherForYou, PWS Weather

Equipment we use:

Weather-station
Davis Vantage Vue

Weather-program
Meteohub

Weather-server
Debian 7.9 x86 (Guest)

Provider
DreamHost

Davis Vantage Vue

Meteohub

Debian 7.9 x86 (Guest)

DreamHost